User: anonymous   Login
Location: Unspecified
(0.0000°N, 0.0000°E)
Time: 09:22:55
(UTC+00:00)
Language:

DOVE 4 - Orbit

View from above orbital plane
View from above orbital plane
View from above satellite
View from above satellite

Ground track
Ground track

The orbit data is extracted from the following two-line orbital elements,

1 39430U 13066Q   17086.96276556 +.00000377 +00000-0 +78143-4 0  9997
2 39430 097.6648 092.1963 0150687 299.8606 058.7691 14.58818167177907
Epoch (UTC): 27 March 2017 23:06:22
Eccentricity: 0.0150687
inclination: 97.6648°
perigee height: 590 km
apogee height: 803 km
right ascension of ascending node: 92.1963°
argument of perigee: 299.8606°
revolutions per day: 14.58818167
mean anomaly at epoch: 58.7691°
orbit number at epoch: 17790

The dashed part of the orbit path shows where the satellite is in the earth's shadow,  

DLR